Time,TemperatureF,DewpointF,PressureIn,WindDirection,WindDirectionDegrees,WindSpeedMPH,WindSpeedGustMPH,Humidity,HourlyPrecipIn,Conditions,Clouds,dailyrainin,SoftwareType,DateUTC
2013-04-05 00:00:00,45.2,32.5,29.92,North,355,11.0,11.0,61,0.00,,,0.00,Wunderground v.1.15,2013-04-05 05:00:00,
2013-04-05 00:05:00,44.6,32.8,29.92,NNW,344,10.0,11.0,63,0.00,,,0.00,Wunderground v.1.15,2013-04-05 05:05:00,
2013-04-05 00:10:00,43.9,32.9,29.92,North,360,10.0,10.0,65,0.00,,,0.00,Wunderground v.1.15,2013-04-05 05:10:00,
2013-04-05 00:15:00,43.2,33.0,29.92,NNE,22,10.0,10.0,67,0.00,,,0.00,Wunderground v.1.15,2013-04-05 05:15:00,
2013-04-05 00:20:00,42.9,33.1,29.92,NNE,20,9.0,9.0,68,0.00,,,0.00,Wunderground v.1.15,2013-04-05 05:20:00,
2013-04-05 00:25:00,42.6,33.1,29.92,NNE,17,8.0,9.0,69,0.00,,,0.00,Wunderground v.1.15,2013-04-05 05:25:00,
2013-04-05 00:35:00,42.3,33.2,29.92,NNE,14,8.0,12.0,70,0.00,,,0.00,Wunderground v.1.15,2013-04-05 05:35:00,
2013-04-05 00:40:00,42.2,33.1,29.92,NNE,29,7.0,10.0,70,0.00,,,0.00,Wunderground v.1.15,2013-04-05 05:40:00,
2013-04-05 00:45:00,42.3,32.8,29.93,North,11,7.0,10.0,69,0.00,,,0.00,Wunderground v.1.15,2013-04-05 05:45:00,
2013-04-05 00:50:00,42.6,32.8,29.93,NNE,27,6.0,6.0,68,0.00,,,0.00,Wunderground v.1.15,2013-04-05 05:50:00,
2013-04-05 00:55:00,42.8,32.6,29.93,NNE,30,5.0,6.0,67,0.00,,,0.00,Wunderground v.1.15,2013-04-05 05:55:00,
2013-04-05 01:00:00,42.9,32.7,29.93,NE,40,5.0,5.0,67,0.00,,,0.00,Wunderground v.1.15,2013-04-05 06:00:00,
2013-04-05 01:05:00,42.8,32.6,29.93,NE,39,5.0,5.0,67,0.00,,,0.00,Wunderground v.1.15,2013-04-05 06:05:00,
2013-04-05 01:10:00,42.6,32.4,29.93,NNE,17,5.0,7.0,67,0.00,,,0.00,Wunderground v.1.15,2013-04-05 06:10:00,
2013-04-05 01:15:00,42.5,32.3,29.93,NNE,15,5.0,7.0,67,0.00,,,0.00,Wunderground v.1.15,2013-04-05 06:15:00,
2013-04-05 01:20:00,42.5,32.3,29.93,NNE,22,5.0,5.0,67,0.00,,,0.00,Wunderground v.1.15,2013-04-05 06:20:00,
2013-04-05 01:25:00,42.5,32.3,29.93,NNE,22,5.0,5.0,67,0.00,,,0.00,Wunderground v.1.15,2013-04-05 06:25:00,
2013-04-05 01:30:00,42.2,32.4,29.93,NNE,22,5.0,5.0,68,0.00,,,0.00,Wunderground v.1.15,2013-04-05 06:30:00,
2013-04-05 01:35:00,42.1,32.3,29.93,NNE,22,4.0,5.0,68,0.00,,,0.00,Wunderground v.1.15,2013-04-05 06:35:00,
2013-04-05 01:40:00,41.8,32.4,29.93,NNE,22,3.0,4.0,69,0.00,,,0.00,Wunderground v.1.15,2013-04-05 06:40:00,
2013-04-05 01:45:00,41.5,32.4,29.93,NNE,22,3.0,5.0,70,0.00,,,0.00,Wunderground v.1.15,2013-04-05 06:45:00,
2013-04-05 01:50:00,41.6,32.2,29.93,NNE,20,4.0,6.0,69,0.00,,,0.00,Wunderground v.1.15,2013-04-05 06:50:00,
2013-04-05 01:55:00,41.6,32.2,29.93,NNE,26,4.0,6.0,69,0.00,,,0.00,Wunderground v.1.15,2013-04-05 06:55:00,
2013-04-05 02:00:00,41.6,32.2,29.94,NNE,24,4.0,4.0,69,0.00,,,0.00,Wunderground v.1.15,2013-04-05 07:00:00,
2013-04-05 02:05:00,41.5,32.1,29.94,NNE,21,5.0,5.0,69,0.00,,,0.00,Wunderground v.1.15,2013-04-05 07:05:00,
2013-04-05 02:10:00,41.8,32.0,29.94,NNE,32,5.0,6.0,68,0.00,,,0.00,Wunderground v.1.15,2013-04-05 07:10:00,
2013-04-05 02:15:00,42.1,31.6,29.94,NE,34,7.0,10.0,66,0.00,,,0.00,Wunderground v.1.15,2013-04-05 07:15:00,
2013-04-05 02:20:00,41.9,31.7,29.94,NNE,29,7.0,7.0,67,0.00,,,0.00,Wunderground v.1.15,2013-04-05 07:20:00,
2013-04-05 02:25:00,41.3,31.5,29.94,NNE,28,5.0,7.0,68,0.00,,,0.00,Wunderground v.1.15,2013-04-05 07:25:00,
2013-04-05 02:30:00,41.1,31.7,29.94,NNE,31,5.0,5.0,69,0.00,,,0.00,Wunderground v.1.15,2013-04-05 07:30:00,
2013-04-05 02:35:00,41.1,31.7,29.94,NNE,17,5.0,5.0,69,0.00,,,0.00,Wunderground v.1.15,2013-04-05 07:35:00,
2013-04-05 02:40:00,41.1,31.7,29.94,NNE,31,5.0,5.0,69,0.00,,,0.00,Wunderground v.1.15,2013-04-05 07:40:00,
2013-04-05 02:45:00,40.9,31.9,29.94,NNE,31,4.0,5.0,70,0.00,,,0.00,Wunderground v.1.15,2013-04-05 07:45:00,
2013-04-05 02:50:00,40.8,31.8,29.94,NNE,29,4.0,5.0,70,0.00,,,0.00,Wunderground v.1.15,2013-04-05 07:50:00,
2013-04-05 02:55:00,40.6,31.6,29.94,NE,44,4.0,5.0,70,0.00,,,0.00,Wunderground v.1.15,2013-04-05 07:55:00,
2013-04-05 03:00:00,40.3,31.6,29.95,NNE,30,3.0,5.0,71,0.00,,,0.00,Wunderground v.1.15,2013-04-05 08:00:00,
2013-04-05 03:05:00,40.2,31.9,29.95,NNE,31,3.0,5.0,72,0.00,,,0.00,Wunderground v.1.15,2013-04-05 08:05:00,
2013-04-05 03:10:00,40.1,32.1,29.95,NNE,31,4.0,6.0,73,0.00,,,0.00,Wunderground v.1.15,2013-04-05 08:10:00,
2013-04-05 03:15:00,39.8,31.8,29.95,NNE,30,4.0,6.0,73,0.00,,,0.00,Wunderground v.1.15,2013-04-05 08:15:00,
2013-04-05 03:20:00,39.5,32.2,29.95,NNE,29,4.0,5.0,75,0.00,,,0.00,Wunderground v.1.15,2013-04-05 08:20:00,
2013-04-05 03:25:00,39.2,32.3,29.95,NNE,21,4.0,5.0,76,0.00,,,0.00,Wunderground v.1.15,2013-04-05 08:25:00,
2013-04-05 03:30:00,39.1,32.2,29.95,NNE,17,5.0,5.0,76,0.00,,,0.00,Wunderground v.1.15,2013-04-05 08:30:00,
2013-04-05 03:35:00,39.1,32.5,29.95,NNE,14,5.0,7.0,77,0.00,,,0.00,Wunderground v.1.15,2013-04-05 08:35:00,
2013-04-05 03:40:00,38.9,32.3,29.95,NNE,17,5.0,5.0,77,0.00,,,0.00,Wunderground v.1.15,2013-04-05 08:40:00,
2013-04-05 03:45:00,38.8,32.5,29.96,NNE,23,5.0,5.0,78,0.00,,,0.00,Wunderground v.1.15,2013-04-05 08:45:00,
2013-04-05 03:50:00,38.5,32.6,29.96,NNE,22,4.0,4.0,79,0.00,,,0.00,Wunderground v.1.15,2013-04-05 08:50:00,
2013-04-05 03:55:00,38.3,32.4,29.96,NNE,22,4.0,4.0,79,0.00,,,0.00,Wunderground v.1.15,2013-04-05 08:55:00,
2013-04-05 04:05:00,38.2,32.6,29.97,NE,42,5.0,7.0,80,0.00,,,0.00,Wunderground v.1.15,2013-04-05 09:05:00,
2013-04-05 04:10:00,38.0,32.7,29.97,NNE,23,5.0,6.0,81,0.00,,,0.00,Wunderground v.1.15,2013-04-05 09:10:00,
2013-04-05 04:15:00,38.0,32.7,29.98,NNE,28,5.0,6.0,81,0.00,,,0.00,Wunderground v.1.15,2013-04-05 09:15:00,
2013-04-05 04:20:00,38.0,32.7,29.98,NNE,27,5.0,5.0,81,0.00,,,0.00,Wunderground v.1.15,2013-04-05 09:20:00,
2013-04-05 04:25:00,38.0,33.0,29.98,NE,56,4.0,5.0,82,0.00,,,0.00,Wunderground v.1.15,2013-04-05 09:25:00,
2013-04-05 04:30:00,38.0,33.0,29.98,NE,38,5.0,6.0,82,0.00,,,0.00,Wunderground v.1.15,2013-04-05 09:30:00,
2013-04-05 04:35:00,37.9,32.9,29.98,NE,37,6.0,6.0,82,0.00,,,0.00,Wunderground v.1.15,2013-04-05 09:35:00,
2013-04-05 04:40:00,37.9,32.9,29.98,NE,38,5.0,5.0,82,0.00,,,0.00,Wunderground v.1.15,2013-04-05 09:40:00,
2013-04-05 04:45:00,37.8,32.8,29.99,NE,51,4.0,5.0,82,0.00,,,0.00,Wunderground v.1.15,2013-04-05 09:45:00,
2013-04-05 04:50:00,37.8,32.8,29.99,NE,35,3.0,10.0,82,0.00,,,0.00,Wunderground v.1.15,2013-04-05 09:50:00,
2013-04-05 04:55:00,37.8,32.5,29.99,NE,46,3.0,10.0,81,0.00,,,0.00,Wunderground v.1.15,2013-04-05 09:55:00,
2013-04-05 05:00:00,37.8,32.2,30.00,ENE,60,2.0,5.0,80,0.00,,,0.00,Wunderground v.1.15,2013-04-05 10:00:00,
2013-04-05 05:05:00,37.8,31.9,30.00,ENE,62,2.0,5.0,79,0.00,,,0.00,Wunderground v.1.15,2013-04-05 10:05:00,
2013-04-05 05:10:00,37.6,31.7,30.00,East,92,2.0,2.0,79,0.00,,,0.00,Wunderground v.1.15,2013-04-05 10:10:00,
2013-04-05 05:15:00,37.6,31.0,30.02,East,86,2.0,4.0,77,0.00,,,0.00,Wunderground v.1.15,2013-04-05 10:15:00,
2013-04-05 05:20:00,37.5,30.3,30.02,East,79,2.0,2.0,75,0.00,,,0.00,Wunderground v.1.15,2013-04-05 10:20:00,
2013-04-05 05:25:00,37.5,29.6,30.02,ENE,58,2.0,3.0,73,0.00,,,0.00,Wunderground v.1.15,2013-04-05 10:25:00,
2013-04-05 05:30:00,37.5,28.9,30.03,ENE,72,3.0,3.0,71,0.00,,,0.00,Wunderground v.1.15,2013-04-05 10:30:00,
2013-04-05 05:35:00,37.3,28.4,30.03,ENE,61,3.0,3.0,70,0.00,,,0.00,Wunderground v.1.15,2013-04-05 10:35:00,
2013-04-05 05:40:00,37.3,27.7,30.03,ENE,71,3.0,3.0,68,0.00,,,0.00,Wunderground v.1.15,2013-04-05 10:40:00,
2013-04-05 05:45:00,37.2,27.6,30.04,ENE,65,2.0,3.0,68,0.00,,,0.00,Wunderground v.1.15,2013-04-05 10:45:00,
2013-04-05 05:50:00,37.0,27.1,30.04,ENE,62,2.0,5.0,67,0.00,,,0.00,Wunderground v.1.15,2013-04-05 10:50:00,
2013-04-05 05:54:00,36.9,26.6,30.04,NE,47,2.0,5.0,66,0.00,,,0.00,Wunderground v.1.15,2013-04-05 10:54:00,
2013-04-05 06:00:00,36.9,26.6,30.05,ENE,71,2.0,3.0,66,0.00,,,0.00,Wunderground v.1.15,2013-04-05 11:00:00,
2013-04-05 06:05:00,36.8,26.1,30.05,East,99,2.0,3.0,65,0.00,,,0.00,Wunderground v.1.15,2013-04-05 11:05:00,
2013-04-05 06:10:00,36.8,26.1,30.05,ENE,63,3.0,3.0,65,0.00,,,0.00,Wunderground v.1.15,2013-04-05 11:10:00,
2013-04-05 06:15:00,36.6,25.9,30.06,ENE,67,2.0,3.0,65,0.00,,,0.00,Wunderground v.1.15,2013-04-05 11:15:00,
2013-04-05 06:20:00,36.5,25.8,30.06,East,85,1.0,1.0,65,0.00,,,0.00,Wunderground v.1.15,2013-04-05 11:20:00,
2013-04-05 06:25:00,36.3,25.7,30.06,East,80,1.0,1.0,65,0.00,,,0.00,Wunderground v.1.15,2013-04-05 11:25:00,
2013-04-05 06:30:00,36.2,25.6,30.07,East,97,1.0,1.0,65,0.00,,,0.00,Wunderground v.1.15,2013-04-05 11:30:00,
2013-04-05 06:35:00,36.0,25.7,30.07,East,92,1.0,2.0,66,0.00,,,0.00,Wunderground v.1.15,2013-04-05 11:35:00,
2013-04-05 06:40:00,36.0,25.7,30.07,East,92,1.0,1.0,66,0.00,,,0.00,Wunderground v.1.15,2013-04-05 11:40:00,
2013-04-05 06:45:00,35.9,25.6,30.08,East,92,1.0,1.0,66,0.00,,,0.00,Wunderground v.1.15,2013-04-05 11:45:00,
2013-04-05 06:50:00,36.0,25.4,30.08,East,82,1.0,1.0,65,0.00,,,0.00,Wunderground v.1.15,2013-04-05 11:50:00,
2013-04-05 06:55:00,36.0,25.7,30.08,East,83,1.0,1.0,66,0.00,,,0.00,Wunderground v.1.15,2013-04-05 11:55:00,
2013-04-05 07:00:00,36.3,25.7,30.09,ESE,103,1.0,2.0,65,0.00,,,0.00,Wunderground v.1.15,2013-04-05 12:00:00,
2013-04-05 07:10:00,36.6,25.6,30.09,East,92,1.0,3.0,64,0.00,,,0.00,Wunderground v.1.15,2013-04-05 12:10:00,
2013-04-05 07:15:00,36.9,25.5,30.09,East,93,2.0,3.0,63,0.00,,,0.00,Wunderground v.1.15,2013-04-05 12:15:00,
2013-04-05 07:20:00,37.0,25.2,30.09,East,83,2.0,3.0,62,0.00,,,0.00,Wunderground v.1.15,2013-04-05 12:20:00,
2013-04-05 07:25:00,37.2,25.4,30.09,East,89,2.0,4.0,62,0.00,,,0.00,Wunderground v.1.15,2013-04-05 12:25:00,
2013-04-05 07:30:00,37.3,25.1,30.09,East,99,2.0,2.0,61,0.00,,,0.00,Wunderground v.1.15,2013-04-05 12:30:00,
2013-04-05 07:35:00,37.6,25.4,30.09,East,80,2.0,2.0,61,0.00,,,0.00,Wunderground v.1.15,2013-04-05 12:35:00,
2013-04-05 07:40:00,37.6,25.0,30.09,ENE,71,2.0,4.0,60,0.00,,,0.00,Wunderground v.1.15,2013-04-05 12:40:00,
2013-04-05 07:45:00,37.8,25.1,30.11,East,93,2.0,4.0,60,0.00,,,0.00,Wunderground v.1.15,2013-04-05 12:45:00,
2013-04-05 07:50:00,37.9,24.8,30.11,NNE,28,3.0,3.0,59,0.00,,,0.00,Wunderground v.1.15,2013-04-05 12:50:00,
2013-04-05 07:55:00,38.0,24.9,30.11,East,101,3.0,6.0,59,0.00,,,0.00,Wunderground v.1.15,2013-04-05 12:55:00,
2013-04-05 08:00:00,38.0,24.5,30.11,ENE,65,3.0,3.0,58,0.00,,,0.00,Wunderground v.1.15,2013-04-05 13:00:00,
2013-04-05 08:05:00,38.5,25.0,30.11,ESE,102,2.0,3.0,58,0.00,,,0.00,Wunderground v.1.15,2013-04-05 13:05:00,
2013-04-05 08:10:00,38.8,24.9,30.11,East,101,2.0,3.0,57,0.00,,,0.00,Wunderground v.1.15,2013-04-05 13:10:00,
2013-04-05 08:15:00,38.8,24.0,30.11,ENE,63,2.0,3.0,55,0.00,,,0.00,Wunderground v.1.15,2013-04-05 13:15:00,
2013-04-05 08:20:00,38.8,23.6,30.11,NE,51,3.0,3.0,54,0.00,,,0.00,Wunderground v.1.15,2013-04-05 13:20:00,
2013-04-05 08:25:00,38.9,23.2,30.11,East,96,3.0,8.0,53,0.00,,,0.00,Wunderground v.1.15,2013-04-05 13:25:00,
2013-04-05 08:30:00,39.1,22.9,30.12,NE,45,3.0,3.0,52,0.00,,,0.00,Wunderground v.1.15,2013-04-05 13:30:00,
2013-04-05 08:35:00,39.3,22.7,30.12,East,80,3.0,4.0,51,0.00,,,0.00,Wunderground v.1.15,2013-04-05 13:35:00,
2013-04-05 08:40:00,39.5,21.9,30.12,East,90,3.0,3.0,49,0.00,,,0.00,Wunderground v.1.15,2013-04-05 13:40:00,
2013-04-05 08:45:00,40.1,22.0,30.12,East,91,3.0,3.0,48,0.00,,,0.00,Wunderground v.1.15,2013-04-05 13:45:00,
2013-04-05 08:50:00,40.3,21.6,30.12,East,94,2.0,2.0,47,0.00,,,0.00,Wunderground v.1.15,2013-04-05 13:50:00,
2013-04-05 08:55:00,40.3,20.6,30.12,ENE,57,3.0,3.0,45,0.00,,,0.00,Wunderground v.1.15,2013-04-05 13:55:00,
2013-04-05 09:00:00,40.8,21.6,30.12,East,88,2.0,2.0,46,0.00,,,0.00,Wunderground v.1.15,2013-04-05 14:00:00,
2013-04-05 09:05:00,41.1,21.3,30.12,East,82,2.0,3.0,45,0.00,,,0.00,Wunderground v.1.15,2013-04-05 14:05:00,
2013-04-05 09:15:00,40.8,20.5,30.12,East,84,3.0,3.0,44,0.00,,,0.00,Wunderground v.1.15,2013-04-05 14:15:00,
2013-04-05 09:20:00,40.6,20.9,30.12,ENE,67,4.0,4.0,45,0.00,,,0.00,Wunderground v.1.15,2013-04-05 14:20:00,
2013-04-05 09:25:00,40.9,21.7,30.12,NE,55,3.0,4.0,46,0.00,,,0.00,Wunderground v.1.15,2013-04-05 14:25:00,
2013-04-05 09:30:00,40.8,25.4,30.13,NE,46,4.0,4.0,54,0.00,,,0.00,Wunderground v.1.15,2013-04-05 14:30:00,
2013-04-05 09:35:00,40.3,26.3,30.13,NE,42,6.0,8.0,57,0.00,,,0.00,Wunderground v.1.15,2013-04-05 14:35:00,
2013-04-05 09:40:00,40.2,26.2,30.13,NNE,19,8.0,11.0,57,0.00,,,0.00,Wunderground v.1.15,2013-04-05 14:40:00,
2013-04-05 09:45:00,39.5,25.5,30.14,North,360,9.0,15.0,57,0.00,,,0.00,Wunderground v.1.15,2013-04-05 14:45:00,
2013-04-05 09:50:00,39.6,26.4,30.14,NNE,23,10.0,13.0,59,0.00,,,0.00,Wunderground v.1.15,2013-04-05 14:50:00,
2013-04-05 10:00:00,39.3,24.5,30.15,NNE,29,10.0,10.0,55,0.00,,,0.00,Wunderground v.1.15,2013-04-05 15:00:00,
2013-04-05 10:05:00,39.3,24.5,30.15,NNE,28,10.0,10.0,55,0.00,,,0.00,Wunderground v.1.15,2013-04-05 15:05:00,
2013-04-05 10:10:00,39.5,23.8,30.15,North,355,10.0,13.0,53,0.00,,,0.00,Wunderground v.1.15,2013-04-05 15:10:00,
2013-04-05 10:15:00,39.3,25.3,30.15,NNE,26,10.0,14.0,57,0.00,,,0.00,Wunderground v.1.15,2013-04-05 15:15:00,
2013-04-05 10:25:00,38.6,24.7,30.15,NE,34,11.0,16.0,57,0.00,,,0.00,Wunderground v.1.15,2013-04-05 15:25:00,
2013-04-05 10:29:00,38.8,24.9,30.15,NNE,26,11.0,13.0,57,0.00,,,0.00,Wunderground v.1.15,2013-04-05 15:29:00,
2013-04-05 10:34:00,39.2,24.4,30.15,NNE,13,10.0,13.0,55,0.00,,,0.00,Wunderground v.1.15,2013-04-05 15:34:00,
2013-04-05 10:40:00,39.3,25.7,30.15,NNE,14,10.0,10.0,58,0.00,,,0.00,Wunderground v.1.15,2013-04-05 15:40:00,
2013-04-05 10:45:00,39.2,25.2,30.15,NNE,26,9.0,14.0,57,0.00,,,0.00,Wunderground v.1.15,2013-04-05 15:45:00,
2013-04-05 10:50:00,38.9,24.5,30.15,NNE,15,10.0,11.0,56,0.00,,,0.00,Wunderground v.1.15,2013-04-05 15:50:00,
2013-04-05 11:00:00,38.6,25.1,30.15,North,5,13.0,13.0,58,0.00,,,0.00,Wunderground v.1.15,2013-04-05 16:00:00,
2013-04-05 11:05:00,38.8,23.1,30.15,NNE,22,13.0,13.0,53,0.00,,,0.00,Wunderground v.1.15,2013-04-05 16:05:00,
2013-04-05 11:10:00,39.1,24.7,30.15,NNE,16,11.0,11.0,56,0.00,,,0.00,Wunderground v.1.15,2013-04-05 16:10:00,
2013-04-05 11:15:00,39.2,24.8,30.16,NNE,31,11.0,12.0,56,0.00,,,0.00,Wunderground v.1.15,2013-04-05 16:15:00,
2013-04-05 11:20:00,38.8,24.9,30.16,NNE,26,12.0,14.0,57,0.00,,,0.00,Wunderground v.1.15,2013-04-05 16:20:00,
2013-04-05 11:25:00,39.5,24.2,30.16,NNE,20,11.0,14.0,54,0.00,,,0.00,Wunderground v.1.15,2013-04-05 16:25:00,
2013-04-05 11:30:00,38.5,24.1,30.17,NNE,24,12.0,12.0,56,0.00,,,0.00,Wunderground v.1.15,2013-04-05 16:30:00,
2013-04-05 11:35:00,38.0,24.1,30.17,NNE,30,14.0,14.0,57,0.00,,,0.00,Wunderground v.1.15,2013-04-05 16:35:00,
2013-04-05 11:40:00,38.0,24.5,30.17,NE,34,13.0,13.0,58,0.00,,,0.00,Wunderground v.1.15,2013-04-05 16:40:00,
2013-04-05 11:45:00,38.2,25.9,30.17,North,11,12.0,13.0,61,0.00,,,0.00,Wunderground v.1.15,2013-04-05 16:45:00,
2013-04-05 11:50:00,38.6,26.3,30.17,North,355,12.0,15.0,61,0.00,,,0.00,Wunderground v.1.15,2013-04-05 16:50:00,
2013-04-05 11:55:00,37.5,26.0,30.17,NNE,22,13.0,19.0,63,0.00,,,0.00,Wunderground v.1.15,2013-04-05 16:55:00,
2013-04-05 12:00:00,37.6,25.4,30.17,NNE,30,14.0,14.0,61,0.00,,,0.00,Wunderground v.1.15,2013-04-05 17:00:00,
2013-04-05 12:05:00,38.3,25.6,30.17,NNE,30,12.0,14.0,60,0.00,,,0.00,Wunderground v.1.15,2013-04-05 17:05:00,
2013-04-05 12:10:00,37.8,25.1,30.17,North,350,12.0,12.0,60,0.00,,,0.00,Wunderground v.1.15,2013-04-05 17:10:00,
2013-04-05 12:15:00,38.2,25.5,30.17,NNE,19,12.0,16.0,60,0.00,,,0.00,Wunderground v.1.15,2013-04-05 17:15:00,
2013-04-05 12:20:00,38.0,24.9,30.17,North,10,13.0,14.0,59,0.00,,,0.00,Wunderground v.1.15,2013-04-05 17:20:00,
2013-04-05 12:30:00,38.2,25.1,30.17,North,11,14.0,14.0,59,0.00,,,0.00,Wunderground v.1.15,2013-04-05 17:30:00,
2013-04-05 12:35:00,38.6,25.1,30.17,North,9,13.0,15.0,58,0.00,,,0.00,Wunderground v.1.15,2013-04-05 17:35:00,
2013-04-05 12:40:00,38.0,25.7,30.17,NNE,21,14.0,14.0,61,0.00,,,0.00,Wunderground v.1.15,2013-04-05 17:40:00,
2013-04-05 12:55:00,37.2,23.8,30.17,North,355,16.0,22.0,58,0.00,,,0.00,Wunderground v.1.15,2013-04-05 17:55:00,
2013-04-05 13:00:00,37.5,23.6,30.16,North,10,16.0,16.0,57,0.00,,,0.00,Wunderground v.1.15,2013-04-05 18:00:00,
2013-04-05 13:10:00,37.6,24.6,30.16,NNW,346,12.0,16.0,59,0.00,,,0.00,Wunderground v.1.15,2013-04-05 18:10:00,
2013-04-05 13:15:00,37.6,23.7,30.16,NNE,22,15.0,16.0,57,0.00,,,0.00,Wunderground v.1.15,2013-04-05 18:15:00,
2013-04-05 13:20:00,37.8,23.5,30.16,NNE,30,14.0,14.0,56,0.00,,,0.00,Wunderground v.1.15,2013-04-05 18:20:00,
2013-04-05 13:25:00,37.2,22.9,30.16,NNE,12,14.0,18.0,56,0.00,,,0.00,Wunderground v.1.15,2013-04-05 18:25:00,
2013-04-05 13:30:00,37.0,21.9,30.16,NNE,23,15.0,19.0,54,0.00,,,0.00,Wunderground v.1.15,2013-04-05 18:30:00,
2013-04-05 13:35:00,36.6,23.2,30.16,North,9,16.0,19.0,58,0.00,,,0.00,Wunderground v.1.15,2013-04-05 18:35:00,
2013-04-05 13:40:00,36.9,23.5,30.16,North,360,15.0,15.0,58,0.00,,,0.00,Wunderground v.1.15,2013-04-05 18:40:00,
2013-04-05 13:45:00,37.3,24.3,30.16,North,5,15.0,19.0,59,0.00,,,0.00,Wunderground v.1.15,2013-04-05 18:45:00,
2013-04-05 13:50:00,37.6,23.3,30.16,NNE,14,15.0,15.0,56,0.00,,,0.00,Wunderground v.1.15,2013-04-05 18:50:00,
2013-04-05 13:55:00,37.5,23.2,30.16,NNE,26,15.0,17.0,56,0.00,,,0.00,Wunderground v.1.15,2013-04-05 18:55:00,
2013-04-05 14:00:00,36.9,22.7,30.16,NE,42,15.0,15.0,56,0.00,,,0.00,Wunderground v.1.15,2013-04-05 19:00:00,
2013-04-05 14:05:00,36.8,23.4,30.16,North,5,15.0,15.0,58,0.00,,,0.00,Wunderground v.1.15,2013-04-05 19:05:00,
2013-04-05 14:10:00,37.5,22.8,30.16,NNE,15,13.0,15.0,55,0.00,,,0.00,Wunderground v.1.15,2013-04-05 19:10:00,
2013-04-05 14:15:00,36.9,22.7,30.15,North,11,13.0,20.0,56,0.00,,,0.00,Wunderground v.1.15,2013-04-05 19:15:00,
2013-04-05 14:20:00,37.0,23.2,30.15,NE,34,15.0,15.0,57,0.00,,,0.00,Wunderground v.1.15,2013-04-05 19:20:00,
2013-04-05 14:25:00,37.8,23.9,30.15,North,355,14.0,16.0,57,0.00,,,0.00,Wunderground v.1.15,2013-04-05 19:25:00,
2013-04-05 14:30:00,36.9,24.3,30.15,North,5,14.0,19.0,60,0.00,,,0.00,Wunderground v.1.15,2013-04-05 19:30:00,
2013-04-05 14:35:00,37.5,24.5,30.15,NE,40,14.0,19.0,59,0.00,,,0.00,Wunderground v.1.15,2013-04-05 19:35:00,
2013-04-05 14:40:00,37.8,23.5,30.15,NE,45,12.0,12.0,56,0.00,,,0.00,Wunderground v.1.15,2013-04-05 19:40:00,
2013-04-05 14:45:00,37.2,24.2,30.15,NNE,32,13.0,13.0,59,0.00,,,0.00,Wunderground v.1.15,2013-04-05 19:45:00,
2013-04-05 14:50:00,37.6,24.1,30.15,North,355,13.0,16.0,58,0.00,,,0.00,Wunderground v.1.15,2013-04-05 19:50:00,
2013-04-05 14:55:00,37.0,23.2,30.15,NNE,13,13.0,16.0,57,0.00,,,0.00,Wunderground v.1.15,2013-04-05 19:55:00,
2013-04-05 15:00:00,36.6,23.6,30.15,North,10,15.0,18.0,59,0.00,,,0.00,Wunderground v.1.15,2013-04-05 20:00:00,
2013-04-05 15:04:00,36.9,23.9,30.15,NE,36,15.0,18.0,59,0.00,,,0.00,Wunderground v.1.15,2013-04-05 20:04:00,
2013-04-05 15:10:00,36.8,23.8,30.15,NNE,27,15.0,15.0,59,0.00,,,0.00,Wunderground v.1.15,2013-04-05 20:10:00,
2013-04-05 15:20:00,36.9,23.9,30.15,North,5,13.0,13.0,59,0.00,,,0.00,Wunderground v.1.15,2013-04-05 20:20:00,
2013-04-05 15:25:00,36.6,23.6,30.15,NNE,16,14.0,20.0,59,0.00,,,0.00,Wunderground v.1.15,2013-04-05 20:25:00,
2013-04-05 15:30:00,36.9,23.5,30.14,NNE,25,12.0,12.0,58,0.00,,,0.00,Wunderground v.1.15,2013-04-05 20:30:00,
2013-04-05 15:35:00,37.0,24.0,30.14,NE,46,11.0,12.0,59,0.00,,,0.00,Wunderground v.1.15,2013-04-05 20:35:00,
2013-04-05 15:40:00,37.8,24.3,30.14,NNE,28,11.0,11.0,58,0.00,,,0.00,Wunderground v.1.15,2013-04-05 20:40:00,
2013-04-05 15:45:00,37.0,24.0,30.13,ENE,66,11.0,12.0,59,0.00,,,0.00,Wunderground v.1.15,2013-04-05 20:45:00,
2013-04-05 15:50:00,36.6,23.6,30.13,NE,53,11.0,11.0,59,0.00,,,0.00,Wunderground v.1.15,2013-04-05 20:50:00,
2013-04-05 15:55:00,36.6,24.4,30.13,NNE,20,12.0,12.0,61,0.00,,,0.00,Wunderground v.1.15,2013-04-05 20:55:00,
2013-04-05 16:00:00,36.5,24.3,30.13,NNE,29,12.0,13.0,61,0.00,,,0.00,Wunderground v.1.15,2013-04-05 21:00:00,
2013-04-05 16:05:00,37.0,24.4,30.13,NNE,30,12.0,14.0,60,0.00,,,0.00,Wunderground v.1.15,2013-04-05 21:05:00,
2013-04-05 16:10:00,36.8,24.2,30.13,NE,38,11.0,11.0,60,0.00,,,0.00,Wunderground v.1.15,2013-04-05 21:10:00,
2013-04-05 16:14:00,36.9,23.9,30.14,NNE,26,10.0,11.0,59,0.00,,,0.00,Wunderground v.1.15,2013-04-05 21:14:00,
2013-04-05 16:20:00,36.0,24.2,30.14,NNE,17,11.0,13.0,62,0.00,,,0.00,Wunderground v.1.15,2013-04-05 21:20:00,
2013-04-05 16:25:00,36.3,24.9,30.14,NE,34,12.0,13.0,63,0.00,,,0.00,Wunderground v.1.15,2013-04-05 21:25:00,
2013-04-05 16:30:00,36.3,24.1,30.14,NE,48,11.0,11.0,61,0.00,,,0.00,Wunderground v.1.15,2013-04-05 21:30:00,
2013-04-05 16:35:00,36.9,24.7,30.14,NNE,14,9.0,18.0,61,0.00,,,0.00,Wunderground v.1.15,2013-04-05 21:35:00,
2013-04-05 16:45:00,36.5,25.8,30.15,NNE,12,13.0,19.0,65,0.00,,,0.00,Wunderground v.1.15,2013-04-05 21:45:00,
2013-04-05 16:50:00,36.5,24.7,30.15,North,349,11.0,16.0,62,0.00,,,0.00,Wunderground v.1.15,2013-04-05 21:50:00,
2013-04-05 16:55:00,36.0,23.8,30.15,NNE,22,11.0,16.0,61,0.00,,,0.00,Wunderground v.1.15,2013-04-05 21:55:00,
2013-04-05 17:00:00,36.2,24.0,30.15,NE,36,11.0,13.0,61,0.00,,,0.00,Wunderground v.1.15,2013-04-05 22:00:00,
2013-04-05 17:10:00,36.0,25.0,30.15,North,360,11.0,11.0,64,0.00,,,0.00,Wunderground v.1.15,2013-04-05 22:10:00,
2013-04-05 17:15:00,35.9,25.3,30.15,NNE,30,12.0,15.0,65,0.00,,,0.00,Wunderground v.1.15,2013-04-05 22:15:00,
2013-04-05 17:20:00,35.8,25.2,30.15,NNE,23,10.0,13.0,65,0.00,,,0.00,Wunderground v.1.15,2013-04-05 22:20:00,
2013-04-05 17:25:00,35.8,25.5,30.15,NNE,32,9.0,13.0,66,0.00,,,0.00,Wunderground v.1.15,2013-04-05 22:25:00,
2013-04-05 17:30:00,35.6,25.0,30.16,North,11,10.0,14.0,65,0.00,,,0.00,Wunderground v.1.15,2013-04-05 22:30:00,
2013-04-05 17:35:00,35.9,25.6,30.16,NNE,21,11.0,14.0,66,0.00,,,0.00,Wunderground v.1.15,2013-04-05 22:35:00,
2013-04-05 17:40:00,35.6,25.0,30.16,North,5,12.0,12.0,65,0.00,,,0.00,Wunderground v.1.15,2013-04-05 22:40:00,
2013-04-05 17:45:00,35.6,25.7,30.16,NNE,15,12.0,15.0,67,0.00,,,0.00,Wunderground v.1.15,2013-04-05 22:45:00,
2013-04-05 17:50:00,35.6,25.4,30.16,NE,34,12.0,12.0,66,0.00,,,0.00,Wunderground v.1.15,2013-04-05 22:50:00,
2013-04-05 17:55:00,35.8,25.5,30.16,NE,56,11.0,12.0,66,0.00,,,0.00,Wunderground v.1.15,2013-04-05 22:55:00,
2013-04-05 18:00:00,35.8,25.5,30.16,NNE,24,11.0,11.0,66,0.00,,,0.00,Wunderground v.1.15,2013-04-05 23:00:00,
2013-04-05 18:05:00,35.9,26.0,30.16,North,355,11.0,12.0,67,0.00,,,0.00,Wunderground v.1.15,2013-04-05 23:05:00,
2013-04-05 18:10:00,35.9,25.3,30.16,NE,34,9.0,9.0,65,0.00,,,0.00,Wunderground v.1.15,2013-04-05 23:10:00,
2013-04-05 18:15:00,35.8,25.5,30.16,North,9,9.0,14.0,66,0.00,,,0.00,Wunderground v.1.15,2013-04-05 23:15:00,
2013-04-05 18:25:00,35.6,26.1,30.16,NE,34,10.0,12.0,68,0.00,,,0.00,Wunderground v.1.15,2013-04-05 23:25:00,
2013-04-05 18:30:00,35.5,26.3,30.16,NE,36,9.0,9.0,69,0.00,,,0.00,Wunderground v.1.15,2013-04-05 23:30:00,
2013-04-05 18:34:00,35.3,25.8,30.16,NNE,19,9.0,11.0,68,0.00,,,0.00,Wunderground v.1.15,2013-04-05 23:34:00,
2013-04-05 18:39:00,35.2,26.0,30.16,NE,34,9.0,9.0,69,0.00,,,0.00,Wunderground v.1.15,2013-04-05 23:39:00,
2013-04-05 18:45:00,34.9,25.8,30.16,NNE,24,8.0,9.0,69,0.00,,,0.00,Wunderground v.1.15,2013-04-05 23:45:00,
2013-04-05 18:50:00,34.9,25.8,30.16,NNE,16,7.0,9.0,69,0.00,,,0.00,Wunderground v.1.15,2013-04-05 23:50:00,
2013-04-05 18:55:00,34.7,25.6,30.16,NE,34,6.0,9.0,69,0.00,,,0.00,Wunderground v.1.15,2013-04-05 23:55:00,
2013-04-05 19:00:00,34.6,25.5,30.16,NNE,32,5.0,5.0,69,0.00,,,0.00,Wunderground v.1.15,2013-04-06 00:00:00,
2013-04-05 19:05:00,34.4,25.6,30.16,NE,39,4.0,6.0,70,0.00,,,0.00,Wunderground v.1.15,2013-04-06 00:05:00,
2013-04-05 19:10:00,34.3,25.9,30.16,NNE,20,4.0,4.0,71,0.00,,,0.00,Wunderground v.1.15,2013-04-06 00:10:00,
2013-04-05 19:14:00,34.3,25.9,30.16,NNE,26,4.0,5.0,71,0.00,,,0.00,Wunderground v.1.15,2013-04-06 00:14:00,
2013-04-05 19:19:00,34.1,25.7,30.16,NNE,28,3.0,4.0,71,0.00,,,0.00,Wunderground v.1.15,2013-04-06 00:19:00,
2013-04-05 19:24:00,34.1,26.0,30.16,NNE,29,3.0,4.0,72,0.00,,,0.00,Wunderground v.1.15,2013-04-06 00:24:00,
2013-04-05 19:30:00,34.1,26.3,30.17,NE,44,4.0,6.0,73,0.00,,,0.00,Wunderground v.1.15,2013-04-06 00:30:00,
2013-04-05 19:35:00,34.1,26.3,30.17,NNE,30,5.0,6.0,73,0.00,,,0.00,Wunderground v.1.15,2013-04-06 00:35:00,
2013-04-05 19:45:00,34.0,26.3,30.17,NE,42,4.0,6.0,73,0.00,,,0.00,Wunderground v.1.15,2013-04-06 00:45:00,
2013-04-05 19:50:00,33.8,26.1,30.17,NNE,23,4.0,5.0,73,0.00,,,0.00,Wunderground v.1.15,2013-04-06 00:50:00,
2013-04-05 19:55:00,33.8,26.1,30.17,NNE,24,3.0,5.0,73,0.00,,,0.00,Wunderground v.1.15,2013-04-06 00:55:00,
2013-04-05 20:00:00,33.8,26.1,30.17,NE,38,3.0,3.0,73,0.00,,,0.00,Wunderground v.1.15,2013-04-06 01:00:00,
2013-04-05 20:05:00,33.7,26.3,30.17,NE,38,3.0,4.0,74,0.00,,,0.00,Wunderground v.1.15,2013-04-06 01:05:00,
2013-04-05 20:10:00,33.7,26.3,30.17,NE,40,3.0,4.0,74,0.00,,,0.00,Wunderground v.1.15,2013-04-06 01:10:00,
2013-04-05 20:20:00,33.5,26.1,30.16,NE,34,3.0,3.0,74,0.00,,,0.00,Wunderground v.1.15,2013-04-06 01:20:00,
2013-04-05 20:25:00,33.5,26.1,30.16,NE,35,2.0,3.0,74,0.00,,,0.00,Wunderground v.1.15,2013-04-06 01:25:00,
2013-04-05 20:30:00,33.5,26.1,30.17,NE,35,2.0,2.0,74,0.00,,,0.00,Wunderground v.1.15,2013-04-06 01:30:00,
2013-04-05 20:35:00,33.5,26.4,30.17,NE,35,1.0,2.0,75,0.00,,,0.00,Wunderground v.1.15,2013-04-06 01:35:00,
2013-04-05 20:40:00,33.5,26.4,30.17,NE,38,1.0,2.0,75,0.00,,,0.00,Wunderground v.1.15,2013-04-06 01:40:00,
2013-04-05 20:45:00,33.8,26.7,30.17,NE,42,2.0,2.0,75,0.00,,,0.00,Wunderground v.1.15,2013-04-06 01:45:00,
2013-04-05 20:55:00,34.0,26.6,30.17,NE,44,3.0,3.0,74,0.00,,,0.00,Wunderground v.1.15,2013-04-06 01:55:00,
2013-04-05 21:00:00,34.0,26.6,30.17,NE,46,2.0,3.0,74,0.00,,,0.00,Wunderground v.1.15,2013-04-06 02:00:00,
2013-04-05 21:05:00,34.0,26.9,30.17,NE,49,3.0,3.0,75,0.00,,,0.00,Wunderground v.1.15,2013-04-06 02:05:00,
2013-04-05 21:15:00,34.0,26.9,30.17,NE,49,1.0,2.0,75,0.00,,,0.00,Wunderground v.1.15,2013-04-06 02:15:00,
2013-04-05 21:20:00,33.8,27.0,30.17,NE,49,1.0,1.0,76,0.00,,,0.00,Wunderground v.1.15,2013-04-06 02:20:00,
2013-04-05 21:25:00,33.8,27.0,30.17,NE,49,1.0,1.0,76,0.00,,,0.00,Wunderground v.1.15,2013-04-06 02:25:00,
2013-04-05 21:30:00,33.7,26.9,30.16,NE,49,0.0,1.0,76,0.00,,,0.00,Wunderground v.1.15,2013-04-06 02:30:00,
2013-04-05 21:35:00,33.5,26.7,30.16,NE,49,0.0,1.0,76,0.00,,,0.00,Wunderground v.1.15,2013-04-06 02:35:00,
2013-04-05 21:40:00,33.5,26.7,30.16,NE,49,0.0,0.0,76,0.00,,,0.00,Wunderground v.1.15,2013-04-06 02:40:00,
2013-04-05 21:45:00,33.4,26.6,30.15,NE,49,0.0,0.0,76,0.00,,,0.00,Wunderground v.1.15,2013-04-06 02:45:00,
2013-04-05 21:50:00,33.2,26.5,30.15,NE,49,0.0,0.0,76,0.00,,,0.00,Wunderground v.1.15,2013-04-06 02:50:00,
2013-04-05 21:55:00,33.1,26.7,30.15,NE,49,0.0,0.0,77,0.00,,,0.00,Wunderground v.1.15,2013-04-06 02:55:00,
2013-04-05 22:00:00,33.1,26.7,30.15,NE,49,1.0,1.0,77,0.00,,,0.00,Wunderground v.1.15,2013-04-06 03:00:00,
2013-04-05 22:05:00,33.1,26.7,30.15,NE,49,1.0,1.0,77,0.00,,,0.00,Wunderground v.1.15,2013-04-06 03:05:00,
2013-04-05 22:10:00,32.9,26.8,30.15,NE,49,0.0,0.0,78,0.00,,,0.00,Wunderground v.1.15,2013-04-06 03:10:00,
2013-04-05 22:15:00,32.9,26.8,30.15,NE,49,0.0,2.0,78,0.00,,,0.00,Wunderground v.1.15,2013-04-06 03:15:00,
2013-04-05 22:20:00,33.1,27.0,30.15,NE,49,0.0,0.0,78,0.00,,,0.00,Wunderground v.1.15,2013-04-06 03:20:00,
2013-04-05 22:25:00,33.1,27.0,30.15,NE,49,1.0,1.0,78,0.00,,,0.00,Wunderground v.1.15,2013-04-06 03:25:00,
2013-04-05 22:30:00,33.2,27.1,30.14,NE,49,1.0,1.0,78,0.00,,,0.00,Wunderground v.1.15,2013-04-06 03:30:00,
2013-04-05 22:35:00,33.4,27.3,30.14,NE,49,1.0,1.0,78,0.00,,,0.00,Wunderground v.1.15,2013-04-06 03:35:00,
2013-04-05 22:40:00,33.5,27.1,30.14,NE,49,1.0,1.0,77,0.00,,,0.00,Wunderground v.1.15,2013-04-06 03:40:00,
2013-04-05 22:45:00,33.5,27.1,30.14,NE,49,1.0,1.0,77,0.00,,,0.00,Wunderground v.1.15,2013-04-06 03:45:00,
2013-04-05 22:50:00,33.5,27.1,30.14,NE,49,1.0,1.0,77,0.00,,,0.00,Wunderground v.1.15,2013-04-06 03:50:00,
2013-04-05 22:55:00,33.5,27.1,30.14,NE,49,1.0,2.0,77,0.00,,,0.00,Wunderground v.1.15,2013-04-06 03:55:00,
2013-04-05 23:05:00,33.5,27.1,30.14,NE,49,1.0,2.0,77,0.00,,,0.00,Wunderground v.1.15,2013-04-06 04:05:00,
2013-04-05 23:10:00,33.4,27.0,30.14,NE,51,1.0,1.0,77,0.00,,,0.00,Wunderground v.1.15,2013-04-06 04:10:00,
2013-04-05 23:15:00,33.4,27.3,30.13,NE,51,2.0,2.0,78,0.00,,,0.00,Wunderground v.1.15,2013-04-06 04:15:00,
2013-04-05 23:20:00,33.4,27.3,30.13,NE,51,1.0,1.0,78,0.00,,,0.00,Wunderground v.1.15,2013-04-06 04:20:00,
2013-04-05 23:25:00,33.4,27.3,30.13,NE,53,1.0,1.0,78,0.00,,,0.00,Wunderground v.1.15,2013-04-06 04:25:00,
2013-04-05 23:30:00,33.4,27.3,30.13,NE,54,1.0,1.0,78,0.00,,,0.00,Wunderground v.1.15,2013-04-06 04:30:00,
2013-04-05 23:35:00,33.4,27.3,30.13,NE,55,2.0,2.0,78,0.00,,,0.00,Wunderground v.1.15,2013-04-06 04:35:00,
2013-04-05 23:40:00,33.4,27.3,30.13,ENE,65,2.0,4.0,78,0.00,,,0.00,Wunderground v.1.15,2013-04-06 04:40:00,
2013-04-05 23:45:00,33.2,27.1,30.12,ENE,75,2.0,4.0,78,0.00,,,0.00,Wunderground v.1.15,2013-04-06 04:45:00,
2013-04-05 23:50:00,33.4,27.3,30.12,East,82,3.0,3.0,78,0.00,,,0.00,Wunderground v.1.15,2013-04-06 04:50:00,
2013-04-05 23:55:00,33.4,27.3,30.12,East,84,2.0,3.0,78,0.00,,,0.00,Wunderground v.1.15,2013-04-06 04:55:00,